Time,TemperatureF,DewpointF,PressureIn,WindDirection,WindDirectionDegrees,WindSpeedMPH,WindSpeedGustMPH,Humidity,HourlyPrecipIn,Conditions,Clouds,dailyrainin,SoftwareType,DateUTC
2013-10-26 00:04:00,29.1,28.6,30.12,SE,135,1.7,-999.0,98,-99.99,,,0.00,Acu-Link.com,2013-10-26 04:04:00,
2013-10-26 00:19:00,28.8,28.3,30.12,South,180,0.0,-999.0,98,-99.99,,,0.00,Acu-Link.com,2013-10-26 04:19:00,
2013-10-26 00:36:00,28.6,28.1,30.12,ENE,67,0.0,-999.0,98,-99.99,,,0.00,Acu-Link.com,2013-10-26 04:36:00,
2013-10-26 00:51:00,28.0,27.5,30.12,SW,225,0.0,-999.0,98,-99.99,,,0.00,Acu-Link.com,2013-10-26 04:51:00,
2013-10-26 01:06:00,27.9,27.4,30.12,SW,225,0.0,-999.0,98,-99.99,,,0.00,Acu-Link.com,2013-10-26 05:06:00,
2013-10-26 01:22:00,27.7,27.2,30.12,South,180,0.0,-999.0,98,-99.99,,,0.00,Acu-Link.com,2013-10-26 05:22:00,
2013-10-26 01:37:00,27.3,26.8,30.11,SSE,157,1.7,-999.0,98,-99.99,,,0.00,Acu-Link.com,2013-10-26 05:37:00,
2013-10-26 01:52:00,27.3,26.8,30.12,SSE,157,0.0,-999.0,98,-99.99,,,0.00,Acu-Link.com,2013-10-26 05:52:00,
2013-10-26 02:07:00,26.8,26.3,30.12,West,270,0.0,-999.0,98,-99.99,,,0.00,Acu-Link.com,2013-10-26 06:07:00,
2013-10-26 02:23:00,26.6,26.1,30.12,SSW,202,1.1,-999.0,98,-99.99,,,0.00,Acu-Link.com,2013-10-26 06:23:00,
2013-10-26 02:38:00,26.6,26.1,30.12,SSW,202,0.0,-999.0,98,-99.99,,,0.00,Acu-Link.com,2013-10-26 06:38:00,
2013-10-26 02:53:00,26.4,25.9,30.12,North,0,0.0,-999.0,98,-99.99,,,0.00,Acu-Link.com,2013-10-26 06:53:00,
2013-10-26 03:10:00,26.4,25.9,30.12,WNW,292,0.0,-999.0,98,-99.99,,,0.00,Acu-Link.com,2013-10-26 07:10:00,
2013-10-26 03:25:00,26.6,26.1,30.12,ESE,112,0.0,-999.0,98,-99.99,,,0.00,Acu-Link.com,2013-10-26 07:25:00,
2013-10-26 03:42:00,26.6,26.1,30.12,South,180,0.0,-999.0,98,-99.99,,,0.00,Acu-Link.com,2013-10-26 07:42:00,
2013-10-26 03:57:00,26.2,25.7,30.11,SSW,202,1.1,-999.0,98,-99.99,,,0.00,Acu-Link.com,2013-10-26 07:57:00,
2013-10-26 04:13:00,26.1,25.6,30.11,SSW,202,0.0,-999.0,98,-99.99,,,0.00,Acu-Link.com,2013-10-26 08:13:00,
2013-10-26 04:28:00,26.2,25.7,30.10,West,270,0.0,-999.0,98,-99.99,,,0.00,Acu-Link.com,2013-10-26 08:28:00,
2013-10-26 04:44:00,26.1,25.6,30.10,SSE,157,0.0,-999.0,98,-99.99,,,0.00,Acu-Link.com,2013-10-26 08:44:00,
2013-10-26 04:59:00,25.7,25.2,30.10,SSE,157,0.0,-999.0,98,-99.99,,,0.00,Acu-Link.com,2013-10-26 08:59:00,
2013-10-26 05:14:00,25.5,25.0,30.10,ESE,112,0.0,-999.0,98,-99.99,,,0.00,Acu-Link.com,2013-10-26 09:14:00,
2013-10-26 05:30:00,25.5,25.0,30.09,South,180,0.0,-999.0,98,-99.99,,,0.00,Acu-Link.com,2013-10-26 09:30:00,
2013-10-26 05:45:00,25.9,25.4,30.09,SW,225,0.0,-999.0,98,-99.99,,,0.00,Acu-Link.com,2013-10-26 09:45:00,
2013-10-26 06:00:00,29.3,28.8,30.08,SE,135,2.2,-999.0,98,-99.99,,,0.00,Acu-Link.com,2013-10-26 10:00:00,
2013-10-26 06:16:00,31.1,30.6,30.08,ESE,112,4.7,-999.0,98,-99.99,,,0.00,Acu-Link.com,2013-10-26 10:16:00,
2013-10-26 06:32:00,31.8,31.3,30.08,NE,45,2.2,-999.0,98,-99.99,,,0.00,Acu-Link.com,2013-10-26 10:32:00,
2013-10-26 10:15:00,42.1,8.8,29.99,SW,225,2.2,-999.0,25,-99.99,,,0.00,Acu-Link.com,2013-10-26 14:15:00,
2013-10-26 10:31:00,42.8,-14.4,29.98,SSE,157,3.7,-999.0,8,-99.99,,,0.00,Acu-Link.com,2013-10-26 14:31:00,
2013-10-26 10:46:00,42.6,-20.1,29.97,NNW,337,0.0,-999.0,6,-99.99,,,0.00,Acu-Link.com,2013-10-26 14:46:00,
2013-10-26 11:01:00,44.1,-50.6,29.97,SSE,157,1.1,-999.0,0,-99.99,,,0.00,Acu-Link.com,2013-10-26 15:01:00,
2013-10-26 11:16:00,45.0,-50.0,29.94,NW,315,4.2,-999.0,1,-99.99,,,0.00,Acu-Link.com,2013-10-26 15:16:00,
2013-10-26 11:31:00,45.3,-49.8,29.95,NW,315,4.2,-999.0,1,-99.99,,,0.00,Acu-Link.com,2013-10-26 15:31:00,
2013-10-26 11:46:00,46.2,-49.3,29.94,West,270,1.7,-999.0,1,-99.99,,,0.00,Acu-Link.com,2013-10-26 15:46:00,
2013-10-26 12:01:00,46.9,-48.8,29.94,ESE,112,4.7,-999.0,1,-99.99,,,0.00,Acu-Link.com,2013-10-26 16:01:00,
2013-10-26 12:16:00,47.7,-48.4,29.92,ESE,112,6.3,-999.0,1,-99.99,,,0.00,Acu-Link.com,2013-10-26 16:16:00,
2013-10-26 12:31:00,48.4,-47.9,29.91,SW,225,5.3,-999.0,1,-99.99,,,0.00,Acu-Link.com,2013-10-26 16:31:00,
2013-10-26 12:46:00,50.0,-46.9,29.91,SW,225,4.7,-999.0,1,-99.99,,,0.00,Acu-Link.com,2013-10-26 16:46:00,
2013-10-26 13:01:00,51.8,-45.8,29.91,West,270,9.9,-999.0,1,-99.99,,,0.00,Acu-Link.com,2013-10-26 17:01:00,
2013-10-26 13:16:00,51.1,-46.3,29.89,West,270,6.3,-999.0,1,-99.99,,,0.00,Acu-Link.com,2013-10-26 17:16:00,
2013-10-26 15:07:00,54.1,-44.4,29.83,West,270,6.3,-999.0,1,-99.99,,,0.00,Acu-Link.com,2013-10-26 19:07:00,
2013-10-26 15:22:00,52.2,-45.6,29.81,ENE,67,2.2,-999.0,1,-99.99,,,0.00,Acu-Link.com,2013-10-26 19:22:00,
2013-10-26 15:37:00,52.5,-45.4,29.80,SW,225,2.2,-999.0,1,-99.99,,,0.00,Acu-Link.com,2013-10-26 19:37:00,
2013-10-26 15:52:00,52.9,-45.2,29.81,NW,315,4.7,-999.0,1,-99.99,,,0.00,Acu-Link.com,2013-10-26 19:52:00,
2013-10-26 16:07:00,51.8,-45.8,29.81,ENE,67,0.0,-999.0,1,-99.99,,,0.00,Acu-Link.com,2013-10-26 20:07:00,
2013-10-26 16:22:00,50.5,-46.6,29.81,SE,135,10.4,-999.0,1,-99.99,,,0.00,Acu-Link.com,2013-10-26 20:22:00,
2013-10-26 16:38:00,50.5,-46.6,29.80,WNW,292,1.1,-999.0,1,-99.99,,,0.00,Acu-Link.com,2013-10-26 20:38:00,
2013-10-26 16:53:00,50.5,-46.6,29.79,SSE,157,1.1,-999.0,1,-99.99,,,0.00,Acu-Link.com,2013-10-26 20:53:00,
2013-10-26 17:08:00,50.0,-46.9,29.79,SSE,157,0.0,-999.0,1,-99.99,,,0.00,Acu-Link.com,2013-10-26 21:08:00,
2013-10-26 17:23:00,49.3,-47.4,29.80,SE,135,3.7,-999.0,1,-99.99,,,0.00,Acu-Link.com,2013-10-26 21:23:00,
2013-10-26 17:38:00,49.1,-47.5,29.80,NNW,337,6.3,-999.0,1,-99.99,,,0.00,Acu-Link.com,2013-10-26 21:38:00,
2013-10-26 17:53:00,48.7,-47.7,29.80,SE,135,2.7,-999.0,1,-99.99,,,0.00,Acu-Link.com,2013-10-26 21:53:00,
2013-10-26 18:08:00,48.4,-47.9,29.80,WSW,247,4.7,-999.0,1,-99.99,,,0.00,Acu-Link.com,2013-10-26 22:08:00,
2013-10-26 18:24:00,48.0,-48.2,29.80,ESE,112,1.7,-999.0,1,-99.99,,,0.00,Acu-Link.com,2013-10-26 22:24:00,
2013-10-26 18:39:00,47.1,-48.7,29.80,West,270,6.3,-999.0,1,-99.99,,,0.00,Acu-Link.com,2013-10-26 22:39:00,
2013-10-26 18:54:00,46.8,-48.9,29.79,WNW,292,1.1,-999.0,1,-99.99,,,0.00,Acu-Link.com,2013-10-26 22:54:00,
2013-10-26 19:09:00,46.9,-48.8,29.80,WNW,292,2.7,-999.0,1,-99.99,,,0.00,Acu-Link.com,2013-10-26 23:09:00,
2013-10-26 19:24:00,46.8,-48.9,29.80,NW,315,1.1,-999.0,1,-99.99,,,0.00,Acu-Link.com,2013-10-26 23:24:00,
2013-10-26 19:39:00,46.8,-48.9,29.81,SW,225,9.4,-999.0,1,-99.99,,,0.00,Acu-Link.com,2013-10-26 23:39:00,
2013-10-26 19:54:00,46.9,-48.8,29.80,NW,315,1.1,-999.0,1,-99.99,,,0.00,Acu-Link.com,2013-10-26 23:54:00,
2013-10-26 20:09:00,46.9,-48.8,29.80,NE,45,2.2,-999.0,1,-99.99,,,0.00,Acu-Link.com,2013-10-27 00:09:00,
2013-10-26 20:25:00,46.8,-48.9,29.82,NNE,22,5.3,-999.0,1,-99.99,,,0.00,Acu-Link.com,2013-10-27 00:25:00,
2013-10-26 20:40:00,46.2,-49.3,29.82,NW,315,9.4,-999.0,1,-99.99,,,0.00,Acu-Link.com,2013-10-27 00:40:00,
2013-10-26 20:55:00,46.0,-49.4,29.82,WSW,247,3.7,-999.0,1,-99.99,,,0.00,Acu-Link.com,2013-10-27 00:55:00,
2013-10-26 21:10:00,46.0,-49.4,29.82,WNW,292,6.3,-999.0,1,-99.99,,,0.00,Acu-Link.com,2013-10-27 01:10:00,
2013-10-26 21:25:00,45.9,-49.5,29.82,WNW,292,3.7,-999.0,1,-99.99,,,0.00,Acu-Link.com,2013-10-27 01:25:00,
2013-10-26 21:40:00,45.7,-49.6,29.82,WNW,292,3.2,-999.0,1,-99.99,,,0.00,Acu-Link.com,2013-10-27 01:40:00,
2013-10-26 21:55:00,45.3,-49.8,29.83,SE,135,10.9,-999.0,1,-99.99,,,0.00,Acu-Link.com,2013-10-27 01:55:00,
2013-10-26 22:11:00,45.3,-49.8,29.82,SSW,202,5.8,-999.0,1,-99.99,,,0.00,Acu-Link.com,2013-10-27 02:11:00,
2013-10-26 22:26:00,45.3,-49.8,29.82,West,270,8.9,-999.0,1,-99.99,,,0.00,Acu-Link.com,2013-10-27 02:26:00,
2013-10-26 22:41:00,45.5,-49.7,29.82,West,270,7.3,-999.0,1,-99.99,,,0.00,Acu-Link.com,2013-10-27 02:41:00,
2013-10-26 22:56:00,45.1,-50.0,29.83,West,270,4.7,-999.0,1,-99.99,,,0.00,Acu-Link.com,2013-10-27 02:56:00,
2013-10-26 23:11:00,45.0,-50.0,29.83,West,270,13.0,-999.0,1,-99.99,,,0.00,Acu-Link.com,2013-10-27 03:11:00,
2013-10-26 23:27:00,45.0,-50.0,29.82,NW,315,7.3,-999.0,1,-99.99,,,0.00,Acu-Link.com,2013-10-27 03:27:00,
2013-10-26 23:42:00,45.0,-50.0,29.83,North,0,9.4,-999.0,1,-99.99,,,0.00,Acu-Link.com,2013-10-27 03:42:00,
2013-10-26 23:57:00,44.8,-50.1,29.84,SW,225,3.7,-999.0,1,-99.99,,,0.00,Acu-Link.com,2013-10-27 03:57:00,